Погода в Калачинске

Погода в Калачинске : погода сейчас, прогноз погоды и архив. Всё, что Вы хотите узнать о погоде в Калачинске!

Хотите узнать прогноз погоды в Калачинске? Тогда Вам сюда: Погода в Калачинске

Поиск расширенной информации на нашем сайте:

Другие новости

Новости СМИ2

Главная страница сайта

Новости сайта

03.07.2017

Напоминаем, что на нашем специализированном сайте Метеоцентр.Азия вы можете получить высокодетализированные автоматические прогнозы погоды по пунктам России, СНГ и мира в авиационном формате (включающие направление и скорость ветра, видимость, явления погоды, количество и форму облачности, нижнюю и верхнюю границу облачности).


Погода в Калачинске - сегодня

Время (UTC), дата Ветер
(°,м/с) 
Видим.   Явления Облачность Т
(°С)
Тd
(°С)
f(%) Тe
(°С)
Pmin
(гПа)
dP
(гПа)
Po
(мм)
O2
(г/м3)
Тmin Tmax R s Состояние
почвы
21 11.08.18 280 (З) 4000 м  слаб. ливневой дождь  10/10 300 м кучево-дожд. 
[Cb cap]
+13.1 +13.1 100 +18  993.6  -1  735  280           
03 12.08.18 300 (СЗ) 5-10  8000 м  слаб. ливневой дождь  10/10 600 м кучево-дожд. 
[Cb cap]
+10.4 +9.9 97 +10  995.8  1.1  737  284  +9.5      влажная 
15 12.08.18 330 (СЗ) 5{13}  20000 м    10/10 600 м кучево-дожд. 
[Cb cap]
+12.3 +9.5 83 +12  1007.6  3.3  746  286    +13.7     
21 12.08.18 310 (СЗ) 10 км    ясно 
+8.2 +7.5 95 +8  1010.8  1.2  748  291           
03 13.08.18 310 (СЗ) 20000 м    10/0 средняя, верхняя 
[Ac As|Ci fib]
+13.4 +6.9 65 +14  1014.4  751  287  +5.7        влажная 
09 13.08.18 240 (ЮЗ) 20000 м    10/6 600 м верхняя 
[Cu med, cong|Ci fib]
+19.7 +6.6 42 +21  1015  0.5  752  281           
15 13.08.18 170 (Ю) 20000 м    10/0 верхняя 
[Ci fib]
+16.6 +7.1 53 +18  1016  0.8  752  285    +20.8       
21 13.08.18 180 (Ю) 10 км    ясно 
+13.9 +6.7 62 +14  1017.2  0.4  753  288           
03 14.08.18 190 (Ю) 20000 м    10/6 600 м кучево-дожд., средняя, верхняя 
[Cb cap|Ac trans|Ci fib]
+15.5 +6.4 55 +16  1018.8  0.6  754  287  +12.8        сухая 
09 14.08.18 180 (Ю) 20000 м    ясно 
+24.6 +9 37 +25  1017.6  -0.7  754  277           
21 14.08.18 130 (ЮВ) 10 км    ясно 
+13.7 +6.9 63 +15  1016.2  -1.2  752  287           
03 15.08.18 130 (ЮВ) 20000 м    10/0 верхняя 
[Ci fib]
+18.7 +8.5 51 +20  1014.9  -0.2  752  282  +11.6        сухая 
09 15.08.18 150 (ЮВ) 20000 м    10/0 верхняя 
[Ci fib]
+27.8 +6.9 27 +28  1011.4  -1.5  749  273           
15 15.08.18 120 (ЮВ) 20000 м    10/4 600 м кучево-дожд., средняя, верхняя 
[Cb cap|Ac trans|Ci fib]
+20.6 +7.2 42 +21  1010.2  -0.5  748  279    +28.3       
21 15.08.18 120 (ЮВ) 10 км    6/3 600 м верхняя 
[Cu hum|Ci fib]
+17.9 +5.3 43 +18  1008  -1.5  746  281           
03 16.08.18 150 (ЮВ) 20000 м    10/4 600 м кучево-дожд., средняя, верхняя 
[Cb cap|Ac As|Ci fib]
+18.3 +7.1 48 +20  1007.7  0.1  746  281  +16.3        сухая 
09 16.08.18 310 (СЗ) 20000 м    10/6 600 м кучево-дожд., средняя, верхняя 
[Cb cap|Ac As|Ci fib]
+24.1 +9.9 41 +25  1009.1  1.2  747  275           
15 16.08.18 тихо ()   10 км    10/3 600 м кучево-дожд., средняя, верхняя 
[Cb cap|Ac trans|Ci fib]
+20.5 +12.5 60 +25  1008.9  747  278    +26       
21 16.08.18 300 (СЗ) 10 км    ясно 
+14.9 +14 94 +23  1009.3  747  283           
03 17.08.18 300 (СЗ) 20000 м    10/0 средняя, верхняя 
[Ac trans|Ci fib]
+18.6 +15.2 81 +28  1010.2  0.8  748  279  +14.4        сухая 
09 17.08.18 270 (З) 20000 м    10/8 600 м кучево-дожд., верхняя 
[Cb cap|Ci fib]
+22.4 +11.8 51 +26  1009.9  -0.5  748  276           
15 17.08.18 180 (Ю) 10 км    6/0 средняя 
[Ac trans]
+18.4 +9.7 57 +21  1009.5  -0.2  747  280    +23.1       
21 17.08.18 210 (ЮЗ) 10 км    10/0 верхняя 
[Ci fib]
+18.3 +9.5 56 +20  1007.6  -0.9  746  280           
03 18.08.18 270 (З) 20000 м    10/3 600 м кучево-дожд., средняя, верхняя 
[Cb cap|Ac As|Ci fib]
+18.4 +13.4 73 +25  1009.1  747  279  +14.8        сухая 
09 18.08.18 270 (З) 5{11}  20000 м    10/3 600 м верхняя 
[Cu hum|Ci fib]
+23.3 +8.3 38 +23  1009.2  0.1  747  276           
Время (UTC), дата Ветер
(°,м/с) 
Видим.   Явления Облачность Т
(°С)
Тd
(°С)
f(%) Тe
(°С)
Pmin
(гПа)
dP
(гПа)
Po
(мм)
O2
(г/м3)
Тmin Tmax R s Состояние
почвы

Для получения пояснительной информации подведите курсор к названию столбца.

ПОГОДА в Калачинске - архив

Всё, что Вы хотите узнать о погоде в Калачинске - удобно и подробно!

Выберите нужную дату (начиная с 1 января 2015* года) и нажмите кнопку "Найти".
Будут отображены архивные сводки погоды по пункту Калачинск, начиная с указанной даты.


Отображать данные в формате CSV (для использования в таблицах Excel)


Внимание! Наш архив погоды предназначен исключительно для личного некоммерческого использования в познавательных целях. Если Вам необходимы официальные справки о состоянии погоды (для производственных, юридических, коммерческих и т.п. целей), обращайтесь в органы Росгидромета.

*Примечание: данная дата относится к архиву по метеостанциям СССР (Россия, СНГ, Балтия).
Архив по метеостанциям Зарубежной Европы и Азии (кроме Китая) хранится 10 дней, по другим регионам земного шара (Китай, Африка, Америка, Австралия, Океания) - 1 день.

Калачинск - район местоположения метеостанции


Название, широта, долгота, высота метеостанции:
Калачинск 55°ш. 74.6°д. 110 м над ур. моря [Российская Федерация]

Дополнительная информация

В oтличие oт бoльшинства пoгoдных сайтoв мы публикуем пoдрoбную метеoинфoрмацию в детальнoм прoфессиoнальнoм фoрмате.

Характеристики температуры и влажнoсти вoздуха измеряются на высoте 2 м в тени вдали oт зданий и деревьев.
Скoрoсть ветра измеряется на высoте 10 м (на урoвне рoста челoвека скoрoсть ветра ниже в 1.5-2 раза). Если метеoстанция нахoдится в гoрoде или в лесу, тo скoрoсть ветра занижена на 2-4 м/с пo сравнению с oткрытым местoм. Скoрoсть ветра над акватoриями крупных рек и oзёр, а также на вершинах хoлмoв на 2-5 м/с выше, чем в oбычных услoвиях.
Атмoсфернoе давление в разных тoчках местнoсти мoжет значительнo oтличаться oт давления на метеoстанции, в зависимoсти oт услoвий рельефа (при пoдъёме на 10 м давление пoнижается примернo на 1 мм рт.ст.).